Time,TemperatureF,DewpointF,PressureIn,WindDirection,WindDirectionDegrees,WindSpeedMPH,WindSpeedGustMPH,Humidity,HourlyPrecipIn,Conditions,Clouds,dailyrainin,SolarRadiationWatts/m^2,SoftwareType,DateUTC
2013-09-08 00:00:00,61.8,58.2,29.89,WNW,296,0.0,0.0,88,0.00,,,0.00,0,Wunderground v.1.15,2013-09-08 04:00:00,
2013-09-08 00:10:00,61.8,58.5,29.89,NNE,19,0.0,0.0,89,0.00,,,0.01,0,Wunderground v.1.15,2013-09-08 04:10:00,
2013-09-08 00:20:00,61.8,58.2,29.88,NNE,19,0.0,0.0,88,0.00,,,0.01,0,Wunderground v.1.15,2013-09-08 04:20:00,
2013-09-08 00:30:00,61.8,58.2,29.88,NNE,19,0.0,0.0,88,0.00,,,0.01,0,Wunderground v.1.15,2013-09-08 04:30:00,
2013-09-08 00:40:00,61.7,58.4,29.89,NNE,19,0.0,0.0,89,0.00,,,0.01,0,Wunderground v.1.15,2013-09-08 04:40:00,
2013-09-08 00:50:00,61.7,58.4,29.89,NW,325,0.0,0.0,89,0.00,,,0.01,0,Wunderground v.1.15,2013-09-08 04:50:00,
2013-09-08 01:00:00,61.7,58.4,29.88,NW,325,0.0,0.0,89,0.00,,,0.01,0,Wunderground v.1.15,2013-09-08 05:00:00,
2013-09-08 01:10:00,61.6,58.3,29.88,NW,325,0.0,0.0,89,0.00,,,0.01,0,Wunderground v.1.15,2013-09-08 05:10:00,
2013-09-08 01:20:00,61.6,58.6,29.88,NW,325,0.0,0.0,90,0.00,,,0.01,0,Wunderground v.1.15,2013-09-08 05:20:00,
2013-09-08 01:30:00,61.6,58.6,29.88,NW,325,0.0,0.0,90,0.00,,,0.01,0,Wunderground v.1.15,2013-09-08 05:30:00,
2013-09-08 01:40:00,61.5,58.5,29.87,NW,325,0.0,0.0,90,0.00,,,0.01,0,Wunderground v.1.15,2013-09-08 05:40:00,
2013-09-08 01:50:00,61.5,58.5,29.86,NW,325,0.0,0.0,90,0.00,,,0.01,0,Wunderground v.1.15,2013-09-08 05:50:00,
2013-09-08 02:00:00,61.4,58.4,29.86,NW,325,0.0,0.0,90,0.00,,,0.01,0,Wunderground v.1.15,2013-09-08 06:00:00,
2013-09-08 02:10:00,61.4,58.1,29.86,NW,325,0.0,0.0,89,0.00,,,0.01,0,Wunderground v.1.15,2013-09-08 06:10:00,
2013-09-08 02:20:00,61.4,58.1,29.86,NW,325,0.0,0.0,89,0.00,,,0.01,0,Wunderground v.1.15,2013-09-08 06:20:00,
2013-09-08 02:30:00,61.3,58.0,29.86,NW,325,0.0,0.0,89,0.00,,,0.01,0,Wunderground v.1.15,2013-09-08 06:30:00,
2013-09-08 02:40:00,61.3,58.0,29.86,NW,325,0.0,0.0,89,0.00,,,0.01,0,Wunderground v.1.15,2013-09-08 06:40:00,
2013-09-08 02:50:00,61.3,58.0,29.85,NW,325,0.0,0.0,89,0.00,,,0.01,0,Wunderground v.1.15,2013-09-08 06:50:00,
2013-09-08 03:00:00,61.3,58.0,29.85,SE,132,0.0,0.0,89,0.00,,,0.01,0,Wunderground v.1.15,2013-09-08 07:00:00,
2013-09-08 03:10:00,61.3,58.0,29.85,SE,132,0.0,0.0,89,0.00,,,0.01,0,Wunderground v.1.15,2013-09-08 07:10:00,
2013-09-08 03:20:00,61.4,58.1,29.85,SE,132,0.0,0.0,89,0.00,,,0.01,0,Wunderground v.1.15,2013-09-08 07:20:00,
2013-09-08 03:30:00,61.4,58.1,29.84,SE,132,0.0,0.0,89,0.00,,,0.01,0,Wunderground v.1.15,2013-09-08 07:30:00,
2013-09-08 03:40:00,61.5,58.5,29.84,SE,132,0.0,0.0,90,0.00,,,0.01,0,Wunderground v.1.15,2013-09-08 07:40:00,
2013-09-08 03:50:00,61.5,58.5,29.84,SE,132,0.0,0.0,90,0.00,,,0.01,0,Wunderground v.1.15,2013-09-08 07:50:00,
2013-09-08 04:10:00,61.5,58.2,29.84,SE,132,0.0,0.0,89,0.00,,,0.01,0,Wunderground v.1.15,2013-09-08 08:10:00,
2013-09-08 04:20:00,61.5,58.2,29.83,SE,132,0.0,0.0,89,0.00,,,0.01,0,Wunderground v.1.15,2013-09-08 08:20:00,
2013-09-08 04:30:00,61.5,58.2,29.83,SE,132,0.0,0.0,89,0.00,,,0.01,0,Wunderground v.1.15,2013-09-08 08:30:00,
2013-09-08 04:40:00,61.5,58.5,29.83,SE,132,0.0,0.0,90,0.00,,,0.01,0,Wunderground v.1.15,2013-09-08 08:40:00,
2013-09-08 04:50:00,61.6,58.6,29.82,SE,132,0.0,0.0,90,0.00,,,0.01,0,Wunderground v.1.15,2013-09-08 08:50:00,
2013-09-08 05:00:00,61.6,58.6,29.82,SE,132,0.0,0.0,90,0.00,,,0.01,0,Wunderground v.1.15,2013-09-08 09:00:00,
2013-09-08 05:10:00,61.7,58.7,29.82,SE,132,0.0,0.0,90,0.00,,,0.01,0,Wunderground v.1.15,2013-09-08 09:10:00,
2013-09-08 05:20:00,61.7,58.7,29.82,SE,132,0.0,0.0,90,0.00,,,0.01,0,Wunderground v.1.15,2013-09-08 09:20:00,
2013-09-08 05:30:00,61.7,58.7,29.82,SE,132,0.0,0.0,90,0.00,,,0.01,0,Wunderground v.1.15,2013-09-08 09:30:00,
2013-09-08 05:40:00,61.6,58.6,29.82,SE,132,0.0,0.0,90,0.00,,,0.01,0,Wunderground v.1.15,2013-09-08 09:40:00,
2013-09-08 06:00:00,61.7,58.7,29.83,SE,133,0.0,0.0,90,0.00,,,0.01,0,Wunderground v.1.15,2013-09-08 10:00:00,
2013-09-08 06:10:00,61.7,58.7,29.83,SE,131,0.0,0.0,90,0.00,,,0.01,0,Wunderground v.1.15,2013-09-08 10:10:00,
2013-09-08 06:20:00,61.8,58.5,29.83,WNW,290,0.0,0.0,89,0.00,,,0.01,0,Wunderground v.1.15,2013-09-08 10:20:00,
2013-09-08 06:30:00,61.9,58.9,29.83,WNW,291,0.0,0.0,90,0.00,,,0.01,0,Wunderground v.1.15,2013-09-08 10:30:00,
2013-09-08 06:40:00,62.0,58.7,29.84,WNW,290,0.0,0.0,89,0.00,,,0.01,0,Wunderground v.1.15,2013-09-08 10:40:00,
2013-09-08 06:50:00,62.0,59.0,29.83,WNW,292,0.0,0.0,90,0.00,,,0.01,0,Wunderground v.1.15,2013-09-08 10:50:00,
2013-09-08 07:01:00,62.0,59.0,29.83,WNW,290,0.0,0.0,90,0.00,,,0.00,5,Wunderground v.1.15,2013-09-08 11:01:00,
2013-09-08 07:10:00,62.1,59.1,29.84,WNW,292,0.0,0.0,90,0.00,,,0.00,7,Wunderground v.1.15,2013-09-08 11:10:00,
2013-09-08 07:20:00,62.2,59.2,29.83,WNW,292,0.0,0.0,90,0.00,,,0.00,12,Wunderground v.1.15,2013-09-08 11:20:00,
2013-09-08 07:30:00,62.4,59.4,29.84,WNW,290,0.0,0.0,90,0.00,,,0.00,11,Wunderground v.1.15,2013-09-08 11:30:00,
2013-09-08 07:40:00,62.4,59.4,29.84,WNW,291,0.0,0.0,90,0.00,,,0.00,9,Wunderground v.1.15,2013-09-08 11:40:00,
2013-09-08 07:50:00,62.6,59.6,29.84,WNW,292,0.0,0.0,90,0.00,,,0.00,11,Wunderground v.1.15,2013-09-08 11:50:00,
2013-09-08 08:00:00,62.7,59.7,29.83,ESE,115,0.0,0.0,90,0.00,,,0.00,33,Wunderground v.1.15,2013-09-08 12:00:00,
2013-09-08 08:10:00,63.0,60.0,29.83,ESE,115,0.0,0.0,90,0.00,,,0.00,46,Wunderground v.1.15,2013-09-08 12:10:00,
2013-09-08 08:20:00,63.2,60.2,29.84,North,350,0.0,0.0,90,0.00,,,0.00,32,Wunderground v.1.15,2013-09-08 12:20:00,
2013-09-08 08:30:00,63.5,60.2,29.84,NW,304,0.0,0.0,89,0.00,,,0.00,44,Wunderground v.1.15,2013-09-08 12:30:00,
2013-09-08 08:40:00,63.8,60.8,29.84,WNW,301,0.0,0.0,90,0.00,,,0.00,116,Wunderground v.1.15,2013-09-08 12:40:00,
2013-09-08 08:50:00,64.2,61.2,29.85,WNW,302,0.0,0.0,90,0.00,,,0.00,107,Wunderground v.1.15,2013-09-08 12:50:00,
2013-09-08 09:00:00,64.6,61.3,29.85,WNW,303,0.0,0.0,89,0.00,,,0.00,102,Wunderground v.1.15,2013-09-08 13:00:00,
2013-09-08 09:10:00,65.0,61.7,29.85,NNW,331,0.0,0.0,89,0.00,,,0.00,95,Wunderground v.1.15,2013-09-08 13:10:00,
2013-09-08 09:20:00,65.4,61.8,29.85,West,277,1.0,1.0,88,0.00,,,0.00,97,Wunderground v.1.15,2013-09-08 13:20:00,
2013-09-08 09:30:00,65.8,60.8,29.86,West,267,0.0,0.0,84,0.00,,,0.00,42,Wunderground v.1.15,2013-09-08 13:30:00,
2013-09-08 09:40:00,66.1,60.4,29.86,NW,313,2.0,2.0,82,0.00,,,0.00,23,Wunderground v.1.15,2013-09-08 13:40:00,
2013-09-08 09:50:00,66.2,60.2,29.86,WSW,252,3.0,3.0,81,0.00,,,0.00,72,Wunderground v.1.15,2013-09-08 13:50:00,
2013-09-08 10:00:00,66.4,60.0,29.86,West,279,2.0,4.0,80,0.00,,,0.00,487,Wunderground v.1.15,2013-09-08 14:00:00,
2013-09-08 10:10:00,67.3,59.8,29.86,West,271,4.0,4.0,77,0.00,,,0.00,617,Wunderground v.1.15,2013-09-08 14:10:00,
2013-09-08 10:20:00,68.2,60.0,29.86,WNW,295,3.0,3.0,75,0.00,,,0.00,643,Wunderground v.1.15,2013-09-08 14:20:00,
2013-09-08 10:30:00,69.1,60.1,29.86,NW,319,3.0,3.0,73,0.00,,,0.00,860,Wunderground v.1.15,2013-09-08 14:30:00,
2013-09-08 10:40:00,69.7,59.1,29.86,WNW,292,3.0,3.0,69,0.00,,,0.00,821,Wunderground v.1.15,2013-09-08 14:40:00,
2013-09-08 10:50:00,69.5,56.3,29.87,North,355,4.0,4.0,63,0.00,,,0.00,325,Wunderground v.1.15,2013-09-08 14:50:00,
2013-09-08 11:00:00,69.3,55.3,29.88,West,267,5.0,5.0,61,0.00,,,0.00,756,Wunderground v.1.15,2013-09-08 15:00:00,
2013-09-08 11:10:00,68.7,53.3,29.88,NNW,341,5.0,5.0,58,0.00,,,0.00,146,Wunderground v.1.15,2013-09-08 15:10:00,
2013-09-08 11:20:00,69.0,57.2,29.89,ENE,75,2.0,2.0,66,0.00,,,0.00,492,Wunderground v.1.15,2013-09-08 15:20:00,
2013-09-08 11:30:00,68.6,55.5,29.88,ENE,67,2.0,2.0,63,0.00,,,0.00,183,Wunderground v.1.15,2013-09-08 15:30:00,
2013-09-08 11:40:00,68.1,56.7,29.89,NNE,21,2.0,2.0,67,0.00,,,0.00,301,Wunderground v.1.15,2013-09-08 15:40:00,
2013-09-08 11:50:00,68.1,57.1,29.89,NE,36,2.0,2.0,68,0.00,,,0.00,946,Wunderground v.1.15,2013-09-08 15:50:00,
2013-09-08 12:01:00,68.5,56.7,29.89,NE,55,2.0,2.0,66,0.00,,,0.00,851,Wunderground v.1.15,2013-09-08 16:01:00,
2013-09-08 12:10:00,69.3,55.3,29.89,NNW,336,3.0,3.0,61,0.00,,,0.00,921,Wunderground v.1.15,2013-09-08 16:10:00,
2013-09-08 12:20:00,69.6,55.6,29.89,North,10,3.0,5.0,61,0.00,,,0.00,909,Wunderground v.1.15,2013-09-08 16:20:00,
2013-09-08 12:30:00,69.6,53.2,29.90,ESE,107,4.0,4.0,56,0.00,,,0.00,847,Wunderground v.1.15,2013-09-08 16:30:00,
2013-09-08 12:40:00,69.9,49.9,29.90,NE,38,4.0,4.0,49,0.00,,,0.00,819,Wunderground v.1.15,2013-09-08 16:40:00,
2013-09-08 12:50:00,70.2,47.9,29.90,NE,46,5.0,5.0,45,0.00,,,0.00,826,Wunderground v.1.15,2013-09-08 16:50:00,
2013-09-08 13:00:00,70.3,46.7,29.90,North,351,4.0,4.0,43,0.00,,,0.00,823,Wunderground v.1.15,2013-09-08 17:00:00,
2013-09-08 13:10:00,70.5,45.7,29.90,NW,326,4.0,5.0,41,0.00,,,0.00,819,Wunderground v.1.15,2013-09-08 17:10:00,
2013-09-08 13:20:00,70.2,47.3,29.90,NE,44,4.0,4.0,44,0.00,,,0.00,821,Wunderground v.1.15,2013-09-08 17:20:00,
2013-09-08 13:30:00,70.3,46.1,29.90,NNE,31,4.0,4.0,42,0.00,,,0.00,814,Wunderground v.1.15,2013-09-08 17:30:00,
2013-09-08 13:40:00,70.2,46.0,29.90,North,5,5.0,5.0,42,0.00,,,0.00,807,Wunderground v.1.15,2013-09-08 17:40:00,
2013-09-08 13:50:00,70.3,43.5,29.90,NW,312,5.0,5.0,38,0.00,,,0.00,770,Wunderground v.1.15,2013-09-08 17:50:00,
2013-09-08 14:00:00,69.9,44.5,29.91,NE,39,6.0,6.0,40,0.00,,,0.00,144,Wunderground v.1.15,2013-09-08 18:00:00,
2013-09-08 14:10:00,69.8,45.7,29.91,NE,48,3.0,3.0,42,0.00,,,0.00,779,Wunderground v.1.15,2013-09-08 18:10:00,
2013-09-08 14:20:00,69.9,43.1,29.91,NNE,12,5.0,7.0,38,0.00,,,0.00,369,Wunderground v.1.15,2013-09-08 18:20:00,
2013-09-08 14:30:00,69.8,45.0,29.91,NNE,15,4.0,4.0,41,0.00,,,0.00,72,Wunderground v.1.15,2013-09-08 18:30:00,
2013-09-08 14:40:00,69.6,43.5,29.91,NW,311,4.0,4.0,39,0.00,,,0.00,42,Wunderground v.1.15,2013-09-08 18:40:00,
2013-09-08 14:50:00,69.4,42.7,29.92,NE,36,5.0,5.0,38,0.00,,,0.00,42,Wunderground v.1.15,2013-09-08 18:50:00,
2013-09-08 15:00:00,69.5,42.1,29.92,NNE,20,5.0,5.0,37,0.00,,,0.00,46,Wunderground v.1.15,2013-09-08 19:00:00,
2013-09-08 15:10:00,69.5,43.4,29.92,North,5,4.0,4.0,39,0.00,,,0.00,35,Wunderground v.1.15,2013-09-08 19:10:00,
2013-09-08 15:20:00,69.5,43.4,29.93,WNW,294,4.0,7.0,39,0.00,,,0.00,37,Wunderground v.1.15,2013-09-08 19:20:00,
2013-09-08 15:30:00,69.3,41.9,29.93,North,5,4.0,4.0,37,0.00,,,0.00,63,Wunderground v.1.15,2013-09-08 19:30:00,
2013-09-08 15:40:00,69.2,39.6,29.93,West,276,4.0,4.0,34,0.00,,,0.00,49,Wunderground v.1.15,2013-09-08 19:40:00,
2013-09-08 15:50:00,69.3,38.9,29.93,WNW,298,5.0,5.0,33,0.00,,,0.00,35,Wunderground v.1.15,2013-09-08 19:50:00,
2013-09-08 16:00:00,69.0,40.2,29.93,NNE,14,4.0,5.0,35,0.00,,,0.00,35,Wunderground v.1.15,2013-09-08 20:00:00,
2013-09-08 16:10:00,69.1,38.8,29.93,North,5,4.0,4.0,33,0.00,,,0.00,33,Wunderground v.1.15,2013-09-08 20:10:00,
2013-09-08 16:20:00,69.2,38.1,29.93,WNW,298,3.0,3.0,32,0.00,,,0.00,28,Wunderground v.1.15,2013-09-08 20:20:00,
2013-09-08 16:30:00,69.2,39.6,29.93,SSW,205,3.0,3.0,34,0.00,,,0.00,32,Wunderground v.1.15,2013-09-08 20:30:00,
2013-09-08 16:40:00,69.0,36.3,29.94,ENE,71,4.0,4.0,30,0.00,,,0.00,26,Wunderground v.1.15,2013-09-08 20:40:00,
2013-09-08 16:50:00,68.8,38.5,29.94,NW,319,4.0,4.0,33,0.00,,,0.00,25,Wunderground v.1.15,2013-09-08 20:50:00,
2013-09-08 17:00:00,68.4,37.4,29.95,NW,313,4.0,4.0,32,0.00,,,0.00,30,Wunderground v.1.15,2013-09-08 21:00:00,
2013-09-08 17:10:00,68.2,38.0,29.95,NNE,29,4.0,9.0,33,0.00,,,0.00,23,Wunderground v.1.15,2013-09-08 21:10:00,
2013-09-08 17:20:00,68.0,37.8,29.96,NNW,327,4.0,4.0,33,0.00,,,0.00,23,Wunderground v.1.15,2013-09-08 21:20:00,
2013-09-08 17:30:00,67.7,39.0,29.96,NNE,27,4.0,4.0,35,0.00,,,0.00,21,Wunderground v.1.15,2013-09-08 21:30:00,
2013-09-08 17:40:00,67.5,39.6,29.96,NNE,13,4.0,4.0,36,0.00,,,0.00,21,Wunderground v.1.15,2013-09-08 21:40:00,
2013-09-08 17:50:00,67.4,39.5,29.96,NNE,18,3.0,3.0,36,0.00,,,0.00,19,Wunderground v.1.15,2013-09-08 21:50:00,
2013-09-08 18:00:00,67.1,41.3,29.97,West,265,2.0,10.0,39,0.00,,,0.00,18,Wunderground v.1.15,2013-09-08 22:00:00,
2013-09-08 18:10:00,66.8,39.7,29.97,NNE,16,3.0,3.0,37,0.00,,,0.00,18,Wunderground v.1.15,2013-09-08 22:10:00,
2013-09-08 18:20:00,66.4,40.0,29.98,ENE,66,2.0,2.0,38,0.00,,,0.00,16,Wunderground v.1.15,2013-09-08 22:20:00,
2013-09-08 18:30:00,66.1,39.7,29.98,NE,36,3.0,4.0,38,0.00,,,0.00,14,Wunderground v.1.15,2013-09-08 22:30:00,
2013-09-08 18:40:00,65.8,40.1,29.99,WNW,293,2.0,2.0,39,0.00,,,0.00,12,Wunderground v.1.15,2013-09-08 22:40:00,
2013-09-08 18:50:00,65.4,40.4,29.99,North,355,1.0,1.0,40,0.00,,,0.00,9,Wunderground v.1.15,2013-09-08 22:50:00,
2013-09-08 19:00:00,65.0,40.1,29.99,NNE,27,2.0,2.0,40,0.00,,,0.00,7,Wunderground v.1.15,2013-09-08 23:00:00,
2013-09-08 19:10:00,64.6,41.0,30.00,North,5,1.0,1.0,42,0.00,,,0.00,0,Wunderground v.1.15,2013-09-08 23:10:00,
2013-09-08 19:20:00,64.2,40.6,30.00,NE,53,1.0,1.0,42,0.00,,,0.00,0,Wunderground v.1.15,2013-09-08 23:20:00,
2013-09-08 19:30:00,63.7,40.2,30.02,NE,55,1.0,1.0,42,0.00,,,0.00,0,Wunderground v.1.15,2013-09-08 23:30:00,
2013-09-08 19:40:00,63.3,40.4,30.02,North,9,1.0,1.0,43,0.00,,,0.00,0,Wunderground v.1.15,2013-09-08 23:40:00,
2013-09-08 19:50:00,62.9,39.4,30.03,NE,55,1.0,2.0,42,0.00,,,0.00,0,Wunderground v.1.15,2013-09-08 23:50:00,
2013-09-08 20:01:00,62.4,38.4,30.04,ENE,69,1.0,2.0,41,0.00,,,0.00,0,Wunderground v.1.15,2013-09-09 00:01:00,
2013-09-08 20:10:00,62.0,38.6,30.05,NNE,31,2.0,2.0,42,0.00,,,0.00,0,Wunderground v.1.15,2013-09-09 00:10:00,
2013-09-08 20:20:00,61.5,39.4,30.06,NNE,24,1.0,1.0,44,0.00,,,0.00,0,Wunderground v.1.15,2013-09-09 00:20:00,
2013-09-08 20:30:00,60.9,40.0,30.06,ENE,75,1.0,1.0,46,0.00,,,0.00,0,Wunderground v.1.15,2013-09-09 00:30:00,
2013-09-08 20:40:00,60.4,40.6,30.07,North,11,1.0,2.0,48,0.00,,,0.00,0,Wunderground v.1.15,2013-09-09 00:40:00,
2013-09-08 20:50:00,59.8,43.1,30.07,NNE,32,0.0,0.0,54,0.00,,,0.00,0,Wunderground v.1.15,2013-09-09 00:50:00,
2013-09-08 21:00:00,58.9,43.7,30.08,NNE,31,0.0,0.0,57,0.00,,,0.00,0,Wunderground v.1.15,2013-09-09 01:00:00,
2013-09-08 21:10:00,58.0,44.6,30.08,NNE,30,0.0,0.0,61,0.00,,,0.00,0,Wunderground v.1.15,2013-09-09 01:10:00,
2013-09-08 21:20:00,57.2,45.1,30.09,NW,313,0.0,0.0,64,0.00,,,0.00,0,Wunderground v.1.15,2013-09-09 01:20:00,
2013-09-08 21:30:00,56.5,44.0,30.10,NW,315,0.0,0.0,63,0.00,,,0.00,0,Wunderground v.1.15,2013-09-09 01:30:00,
2013-09-08 21:40:00,55.9,44.3,30.10,NW,315,0.0,0.0,65,0.00,,,0.00,0,Wunderground v.1.15,2013-09-09 01:40:00,
2013-09-08 21:50:00,55.1,43.9,30.10,NW,313,0.0,0.0,66,0.00,,,0.00,0,Wunderground v.1.15,2013-09-09 01:50:00,
2013-09-08 22:00:00,54.4,43.3,30.11,NW,313,0.0,0.0,66,0.00,,,0.00,0,Wunderground v.1.15,2013-09-09 02:00:00,
2013-09-08 22:10:00,53.7,42.6,30.11,NW,315,0.0,0.0,66,0.00,,,0.00,0,Wunderground v.1.15,2013-09-09 02:10:00,
2013-09-08 22:20:00,53.3,43.8,30.11,NW,314,0.0,0.0,70,0.00,,,0.00,0,Wunderground v.1.15,2013-09-09 02:20:00,
2013-09-08 22:30:00,53.0,43.8,30.12,NW,316,0.0,0.0,71,0.00,,,0.00,0,Wunderground v.1.15,2013-09-09 02:30:00,
2013-09-08 22:40:00,52.4,42.9,30.12,NW,313,0.0,0.0,70,0.00,,,0.00,0,Wunderground v.1.15,2013-09-09 02:40:00,
2013-09-08 22:50:00,51.7,42.6,30.13,NW,313,0.0,0.0,71,0.00,,,0.00,0,Wunderground v.1.15,2013-09-09 02:50:00,
2013-09-08 23:00:00,51.2,43.2,30.13,NW,313,0.0,0.0,74,0.00,,,0.00,0,Wunderground v.1.15,2013-09-09 03:00:00,
2013-09-08 23:10:00,50.7,42.7,30.14,NW,315,0.0,0.0,74,0.00,,,0.00,0,Wunderground v.1.15,2013-09-09 03:10:00,
2013-09-08 23:20:00,50.2,42.9,30.15,NW,313,0.0,0.0,76,0.00,,,0.00,0,Wunderground v.1.15,2013-09-09 03:20:00,
2013-09-08 23:30:00,49.7,42.8,30.14,NW,314,0.0,0.0,77,0.00,,,0.00,0,Wunderground v.1.15,2013-09-09 03:30:00,
2013-09-08 23:40:00,49.4,42.8,30.15,NW,313,0.0,0.0,78,0.00,,,0.00,0,Wunderground v.1.15,2013-09-09 03:40:00,
2013-09-08 23:50:00,49.0,42.4,30.15,NW,313,0.0,0.0,78,0.00,,,0.00,0,Wunderground v.1.15,2013-09-09 03:50:00,